| time (UTC) | temp C | wind direction | speed KPH | gust KPH | rain 1hr cm | rain 24hr cm | rain mn cm | humidity % | barometer mb |
| 20260506050108 | 11 | 135 | 1.6 | 6.4 | 0.00 | 0.00 | 0.00 | 81 | 1019.6 |
| 20260506043032 | 13 | 81 | 0.0 | 0.0 | 0.00 | 0.00 | 0.00 | 76 | 1019.3 |
| 20260506041605 | 13 | 136 | 3.2 | 8.0 | 0.00 | 0.00 | 0.00 | 74 | 1019.1 |
| 20260506040038 | 15 | 151 | 3.2 | 8.0 | 0.00 | 0.00 | 0.00 | 71 | 1018.9 |
| 20260506034551 | 16 | 174 | 4.8 | 8.0 | 0.00 | 0.00 | 0.00 | 67 | 1018.7 |
| 20260506033047 | 17 | 292 | 1.6 | 8.0 | 0.00 | 0.00 | 0.00 | 62 | 1018.4 |
| 20260506031530 | 18 | 44 | 6.4 | 9.7 | 0.00 | 0.00 | 0.00 | 61 | 1018.2 |
| 20260506030031 | 19 | 46 | 4.8 | 9.7 | 0.00 | 0.00 | 0.00 | 58 | 1018.1 |
| 20260506023029 | 21 | 37 | 6.4 | 9.7 | 0.00 | 0.00 | 0.00 | 54 | 1017.9 |
| 20260506021531 | 21 | 35 | 8.0 | 12.9 | 0.00 | 0.00 | 0.00 | 53 | 1017.8 |
| 20260506020030 | 22 | 11 | 8.0 | 12.9 | 0.00 | 0.00 | 0.00 | 52 | 1017.8 |
| 20260506014531 | 22 | 14 | 9.7 | 14.5 | 0.00 | 0.00 | 0.00 | 51 | 1017.7 |
| 20260506013031 | 22 | 18 | 11.3 | 17.7 | 0.00 | 0.00 | 0.00 | 50 | 1017.7 |
| 20260506011530 | 23 | 12 | 11.3 | 14.5 | 0.00 | 0.00 | 0.00 | 49 | 1017.6 |
| 20260506010031 | 23 | 359 | 12.9 | 17.7 | 0.00 | 0.00 | 0.00 | 48 | 1017.5 |
| 20260506004532 | 24 | 357 | 12.9 | 19.3 | 0.00 | 0.00 | 0.00 | 47 | 1017.5 |
| 20260506003048 | 24 | 359 | 14.5 | 17.7 | 0.00 | 0.00 | 0.00 | 46 | 1017.4 |
| 20260506001607 | 25 | 1 | 14.5 | 19.3 | 0.00 | 0.00 | 0.00 | 44 | 1017.5 |
| 20260506000031 | 25 | 3 | 12.9 | 19.3 | 0.00 | 0.00 | 0.00 | 44 | 1017.5 |
| 20260505234529 | 25 | 3 | 12.9 | 19.3 | 0.00 | 0.00 | 0.00 | 44 | 1017.6 |
| 20260505231531 | 25 | 2 | 12.9 | 20.9 | 0.00 | 0.00 | 0.00 | 45 | 1017.8 |
| 20260505230030 | 25 | 358 | 14.5 | 22.5 | 0.00 | 0.00 | 0.00 | 44 | 1017.8 |
| 20260505224532 | 25 | 357 | 12.9 | 20.9 | 0.00 | 0.00 | 0.00 | 44 | 1017.9 |
| 20260505223107 | 24 | 7 | 14.5 | 22.5 | 0.00 | 0.00 | 0.00 | 45 | 1018.0 |
| 20260505221531 | 24 | 4 | 14.5 | 20.9 | 0.00 | 0.00 | 0.00 | 45 | 1018.2 |
| 20260505220030 | 24 | 360 | 14.5 | 22.5 | 0.00 | 0.00 | 0.00 | 46 | 1018.3 |
| 20260505214533 | 23 | 8 | 12.9 | 20.9 | 0.00 | 0.00 | 0.00 | 46 | 1018.3 |
| 20260505213028 | 23 | 5 | 11.3 | 17.7 | 0.00 | 0.00 | 0.00 | 47 | 1018.4 |
| 20260505210029 | 22 | 9 | 11.3 | 19.3 | 0.00 | 0.00 | 0.00 | 49 | 1018.9 |
| 20260505203032 | 22 | 7 | 11.3 | 20.9 | 0.00 | 0.00 | 0.00 | 50 | 1019.0 |
| 20260505200031 | 22 | 3 | 11.3 | 19.3 | 0.00 | 0.00 | 0.00 | 49 | 1019.1 |
| 20260505193029 | 21 | 26 | 6.4 | 16.1 | 0.00 | 0.00 | 0.00 | 53 | 1019.3 |
| 20260505191549 | 21 | 27 | 9.7 | 20.9 | 0.00 | 0.00 | 0.00 | 54 | 1019.3 |
| 20260505190031 | 21 | 2 | 9.7 | 17.7 | 0.00 | 0.00 | 0.00 | 54 | 1019.4 |
| 20260505184529 | 20 | 19 | 8.0 | 16.1 | 0.00 | 0.00 | 0.00 | 55 | 1019.5 |
| 20260505183145 | 20 | 11 | 9.7 | 19.3 | 0.00 | 0.00 | 0.00 | 57 | 1019.6 |
| 20260505181537 | 19 | 356 | 8.0 | 16.1 | 0.00 | 0.00 | 0.00 | 59 | 1019.5 |
| 20260505180030 | 18 | 354 | 8.0 | 19.3 | 0.00 | 0.00 | 0.00 | 60 | 1019.5 |
| 20260505173030 | 19 | 14 | 8.0 | 16.1 | 0.00 | 0.00 | 0.00 | 60 | 1019.5 |
| 20260505171531 | 18 | 16 | 6.4 | 12.9 | 0.00 | 0.00 | 0.00 | 60 | 1019.4 |
| 20260505170047 | 18 | 34 | 8.0 | 14.5 | 0.00 | 0.00 | 0.00 | 62 | 1019.5 |
| 20260505164530 | 17 | 20 | 6.4 | 12.9 | 0.00 | 0.00 | 0.00 | 63 | 1019.5 |
| 20260505163036 | 17 | 8 | 8.0 | 12.9 | 0.00 | 0.00 | 0.00 | 64 | 1019.5 |
| 20260505161530 | 17 | 13 | 8.0 | 14.5 | 0.00 | 0.00 | 0.00 | 65 | 1019.5 |
| 20260505153031 | 15 | 6 | 8.0 | 11.3 | 0.00 | 0.00 | 0.00 | 73 | 1019.1 |
| 20260505151537 | 15 | 352 | 4.8 | 8.0 | 0.00 | 0.00 | 0.00 | 75 | 1019.1 |
| 20260505124529 | 8 | 179 | 6.4 | 9.7 | 0.00 | 0.00 | 0.00 | 90 | 1017.7 |
| 20260505123036 | 8 | 180 | 6.4 | 11.3 | 0.00 | 0.00 | 0.00 | 90 | 1017.6 |
| 20260505121534 | 8 | 176 | 8.0 | 11.3 | 0.00 | 0.00 | 0.00 | 89 | 1017.4 |
| 20260505120033 | 8 | 180 | 9.7 | 11.3 | 0.00 | 0.00 | 0.00 | 89 | 1017.5 |
| 20260505114532 | 8 | 180 | 9.7 | 11.3 | 0.00 | 0.00 | 0.00 | 88 | 1017.4 |
| 20260505113033 | 8 | 180 | 8.0 | 12.9 | 0.00 | 0.00 | 0.00 | 88 | 1017.3 |
| 20260505111531 | 8 | 180 | 11.3 | 12.9 | 0.00 | 0.00 | 0.00 | 87 | 1017.2 |
| 20260505101625 | 9 | 179 | 9.7 | 11.3 | 0.00 | 0.00 | 0.00 | 84 | 1016.9 |
| 20260505100045 | 9 | 180 | 8.0 | 11.3 | 0.00 | 0.00 | 0.00 | 84 | 1016.8 |
| 20260505094602 | 10 | 177 | 6.4 | 11.3 | 0.00 | 0.00 | 0.00 | 82 | 1016.8 |
| 20260505093031 | 10 | 177 | 6.4 | 11.3 | 0.00 | 0.00 | 0.00 | 81 | 1016.7 |
| 20260505091530 | 10 | 178 | 9.7 | 11.3 | 0.00 | 0.00 | 0.00 | 81 | 1016.7 |
| 20260505090036 | 10 | 178 | 8.0 | 11.3 | 0.00 | 0.00 | 0.00 | 80 | 1016.5 |
| 20260505084531 | 11 | 180 | 6.4 | 9.7 | 0.00 | 0.00 | 0.00 | 78 | 1016.6 |
| 20260505081532 | 12 | 156 | 4.8 | 9.7 | 0.00 | 0.00 | 0.00 | 75 | 1016.6 |
| 20260505074530 | 13 | 263 | 1.6 | 6.4 | 0.00 | 0.00 | 0.00 | 73 | 1016.5 |
| 20260505073103 | 13 | 234 | 0.0 | 6.4 | 0.00 | 0.00 | 0.00 | 72 | 1016.4 |
| 20260505071531 | 13 | 199 | 3.2 | 6.4 | 0.00 | 0.00 | 0.00 | 70 | 1016.2 |
| 20260505064532 | 14 | 99 | 0.0 | 6.4 | 0.00 | 0.00 | 0.00 | 67 | 1016.1 |
| 20260505063029 | 14 | 199 | 1.6 | 6.4 | 0.00 | 0.00 | 0.00 | 65 | 1016.2 |
| 20260505061532 | 14 | 173 | 6.4 | 9.7 | 0.00 | 0.00 | 0.00 | 63 | 1016.1 |